Time,TemperatureF,DewpointF,PressureIn,WindDirection,WindDirectionDegrees,WindSpeedMPH,WindSpeedGustMPH,Humidity,HourlyPrecipIn,Conditions,Clouds,dailyrainin,SoftwareType,DateUTC
2013-03-29 00:00:00,44.3,32.9,30.20,West,259,2.0,2.0,64,0.00,,,0.00,Wunderground v.1.15,2013-03-29 04:00:00,
2013-03-29 00:02:00,44.3,33.3,30.20,WNW,294,2.0,5.0,65,0.00,,,0.00,Wunderground v.1.15,2013-03-29 04:02:00,
2013-03-29 00:03:00,44.3,33.3,30.20,West,279,2.0,5.0,65,0.00,,,0.00,Wunderground v.1.15,2013-03-29 04:03:00,
2013-03-29 00:09:00,44.3,33.3,30.20,NW,315,2.0,5.0,65,0.00,,,0.00,Wunderground v.1.15,2013-03-29 04:09:00,
2013-03-29 00:15:00,44.2,33.2,30.20,West,279,2.0,5.0,65,0.00,,,0.00,Wunderground v.1.15,2013-03-29 04:15:00,
2013-03-29 00:21:00,44.3,32.9,30.20,NW,313,3.0,4.0,64,0.00,,,0.00,Wunderground v.1.15,2013-03-29 04:21:00,
2013-03-29 00:26:00,44.2,33.2,30.20,WNW,292,2.0,5.0,65,0.00,,,0.00,Wunderground v.1.15,2013-03-29 04:26:00,
2013-03-29 00:32:00,44.2,33.2,30.20,NW,310,2.0,5.0,65,0.00,,,0.00,Wunderground v.1.15,2013-03-29 04:32:00,
2013-03-29 00:38:00,44.1,33.1,30.20,NW,310,2.0,5.0,65,0.00,,,0.00,Wunderground v.1.15,2013-03-29 04:38:00,
2013-03-29 00:43:00,44.1,33.1,30.20,NW,313,2.0,5.0,65,0.00,,,0.00,Wunderground v.1.15,2013-03-29 04:43:00,
2013-03-29 00:48:00,44.1,33.1,30.20,West,269,2.0,5.0,65,0.00,,,0.00,Wunderground v.1.15,2013-03-29 04:48:00,
2013-03-29 00:54:00,44.1,33.1,30.20,NW,317,2.0,5.0,65,0.00,,,0.00,Wunderground v.1.15,2013-03-29 04:54:00,
2013-03-29 00:59:00,44.1,33.1,30.20,WNW,285,2.0,5.0,65,0.00,,,0.00,Wunderground v.1.15,2013-03-29 04:59:00,
2013-03-29 01:05:00,44.1,33.1,30.20,NW,319,2.0,5.0,65,0.00,,,0.00,Wunderground v.1.15,2013-03-29 05:05:00,
2013-03-29 01:10:00,44.1,32.7,30.20,NW,315,3.0,4.0,64,0.00,,,0.00,Wunderground v.1.15,2013-03-29 05:10:00,
2013-03-29 01:16:00,44.1,32.7,30.20,NW,321,3.0,7.0,64,0.00,,,0.00,Wunderground v.1.15,2013-03-29 05:16:00,
2013-03-29 01:22:00,44.1,33.1,30.21,WNW,294,2.0,4.0,65,0.00,,,0.00,Wunderground v.1.15,2013-03-29 05:22:00,
2013-03-29 01:28:00,44.1,33.1,30.21,WNW,303,1.0,4.0,65,0.00,,,0.00,Wunderground v.1.15,2013-03-29 05:28:00,
2013-03-29 01:33:00,44.1,32.7,30.21,NW,314,2.0,4.0,64,0.00,,,0.00,Wunderground v.1.15,2013-03-29 05:33:00,
2013-03-29 01:38:00,44.1,33.1,30.21,NNW,343,2.0,4.0,65,0.00,,,0.00,Wunderground v.1.15,2013-03-29 05:38:00,
2013-03-29 01:44:00,44.1,33.1,30.21,NW,306,2.0,4.0,65,0.00,,,0.00,Wunderground v.1.15,2013-03-29 05:44:00,
2013-03-29 01:50:00,44.0,32.6,30.21,NW,315,2.0,2.0,64,0.00,,,0.00,Wunderground v.1.15,2013-03-29 05:50:00,
2013-03-29 01:55:00,44.1,32.7,30.21,WNW,285,3.0,5.0,64,0.00,,,0.00,Wunderground v.1.15,2013-03-29 05:55:00,
2013-03-29 02:01:00,44.1,33.1,30.21,WNW,294,2.0,3.0,65,0.00,,,0.00,Wunderground v.1.15,2013-03-29 06:01:00,
2013-03-29 02:07:00,44.1,33.1,30.21,NW,309,2.0,5.0,65,0.00,,,0.00,Wunderground v.1.15,2013-03-29 06:07:00,
2013-03-29 02:13:00,44.0,32.6,30.21,NW,311,3.0,6.0,64,0.00,,,0.00,Wunderground v.1.15,2013-03-29 06:13:00,
2013-03-29 02:19:00,44.0,33.0,30.21,NW,305,2.0,6.0,65,0.00,,,0.00,Wunderground v.1.15,2013-03-29 06:19:00,
2013-03-29 02:24:00,44.0,33.0,30.21,NW,311,2.0,4.0,65,0.00,,,0.00,Wunderground v.1.15,2013-03-29 06:24:00,
2013-03-29 02:30:00,43.9,32.5,30.21,NW,313,2.0,3.0,64,0.00,,,0.00,Wunderground v.1.15,2013-03-29 06:30:00,
2013-03-29 02:36:00,43.9,32.5,30.21,North,358,2.0,3.0,64,0.00,,,0.00,Wunderground v.1.15,2013-03-29 06:36:00,
2013-03-29 02:42:00,43.9,32.5,30.21,NNW,330,2.0,4.0,64,0.00,,,0.00,Wunderground v.1.15,2013-03-29 06:42:00,
2013-03-29 02:47:00,43.9,32.5,30.20,NW,318,2.0,4.0,64,0.00,,,0.00,Wunderground v.1.15,2013-03-29 06:47:00,
2013-03-29 02:53:00,43.8,32.4,30.21,NW,309,2.0,5.0,64,0.00,,,0.00,Wunderground v.1.15,2013-03-29 06:53:00,
2013-03-29 02:58:00,43.8,32.4,30.21,NW,304,3.0,5.0,64,0.00,,,0.00,Wunderground v.1.15,2013-03-29 06:58:00,
2013-03-29 03:04:00,43.8,32.4,30.20,NW,319,3.0,5.0,64,0.00,,,0.00,Wunderground v.1.15,2013-03-29 07:04:00,
2013-03-29 03:10:00,43.8,32.4,30.20,NNW,333,2.0,5.0,64,0.00,,,0.00,Wunderground v.1.15,2013-03-29 07:10:00,
2013-03-29 03:16:00,43.7,31.9,30.20,WNW,290,2.0,5.0,63,0.00,,,0.00,Wunderground v.1.15,2013-03-29 07:16:00,
2013-03-29 03:22:00,43.6,31.8,30.20,WNW,301,3.0,5.0,63,0.00,,,0.00,Wunderground v.1.15,2013-03-29 07:22:00,
2013-03-29 03:27:00,43.5,32.1,30.20,WNW,303,2.0,5.0,64,0.00,,,0.00,Wunderground v.1.15,2013-03-29 07:27:00,
2013-03-29 03:33:00,43.3,31.9,30.20,WNW,286,2.0,5.0,64,0.00,,,0.00,Wunderground v.1.15,2013-03-29 07:33:00,
2013-03-29 03:39:00,43.2,31.8,30.20,NNW,328,2.0,5.0,64,0.00,,,0.00,Wunderground v.1.15,2013-03-29 07:39:00,
2013-03-29 03:44:00,43.1,32.1,30.20,NW,307,2.0,5.0,65,0.00,,,0.00,Wunderground v.1.15,2013-03-29 07:44:00,
2013-03-29 03:49:00,43.0,31.6,30.20,NW,326,2.0,5.0,64,0.00,,,0.00,Wunderground v.1.15,2013-03-29 07:49:00,
2013-03-29 03:55:00,42.9,31.6,30.20,NW,313,2.0,5.0,64,0.00,,,0.00,Wunderground v.1.15,2013-03-29 07:55:00,
2013-03-29 04:01:00,42.8,31.5,30.20,West,274,2.0,4.0,64,0.00,,,0.00,Wunderground v.1.15,2013-03-29 08:01:00,
2013-03-29 04:07:00,42.7,31.7,30.20,NW,311,2.0,4.0,65,0.00,,,0.00,Wunderground v.1.15,2013-03-29 08:07:00,
2013-03-29 04:12:00,42.6,31.7,30.20,NW,319,1.0,4.0,65,0.00,,,0.00,Wunderground v.1.15,2013-03-29 08:12:00,
2013-03-29 04:18:00,42.5,31.6,30.20,WNW,293,1.0,4.0,65,0.00,,,0.00,Wunderground v.1.15,2013-03-29 08:18:00,
2013-03-29 04:23:00,42.3,31.4,30.20,WNW,293,1.0,4.0,65,0.00,,,0.00,Wunderground v.1.15,2013-03-29 08:23:00,
2013-03-29 04:28:00,42.2,31.6,30.20,WNW,293,1.0,4.0,66,0.00,,,0.00,Wunderground v.1.15,2013-03-29 08:28:00,
2013-03-29 04:34:00,42.1,31.6,30.20,West,274,0.0,4.0,66,0.00,,,0.00,Wunderground v.1.15,2013-03-29 08:34:00,
2013-03-29 04:40:00,41.9,31.7,30.20,WNW,288,1.0,4.0,67,0.00,,,0.00,Wunderground v.1.15,2013-03-29 08:40:00,
2013-03-29 04:46:00,41.8,31.6,30.20,NW,326,1.0,4.0,67,0.00,,,0.00,Wunderground v.1.15,2013-03-29 08:46:00,
2013-03-29 04:51:00,41.7,31.5,30.20,NW,326,1.0,4.0,67,0.00,,,0.00,Wunderground v.1.15,2013-03-29 08:51:00,
2013-03-29 04:57:00,41.6,31.4,30.20,NW,309,1.0,4.0,67,0.00,,,0.00,Wunderground v.1.15,2013-03-29 08:57:00,
2013-03-29 05:02:00,41.5,31.4,30.20,West,281,1.0,5.0,67,0.00,,,0.00,Wunderground v.1.15,2013-03-29 09:02:00,
2013-03-29 05:07:00,41.5,31.0,30.20,NW,309,1.0,5.0,66,0.00,,,0.00,Wunderground v.1.15,2013-03-29 09:07:00,
2013-03-29 05:12:00,41.4,30.9,30.20,NNW,331,1.0,4.0,66,0.00,,,0.00,Wunderground v.1.15,2013-03-29 09:12:00,
2013-03-29 05:18:00,41.4,30.5,30.20,NW,317,2.0,4.0,65,0.00,,,0.00,Wunderground v.1.15,2013-03-29 09:18:00,
2013-03-29 05:24:00,41.3,30.4,30.20,NW,325,1.0,4.0,65,0.00,,,0.00,Wunderground v.1.15,2013-03-29 09:24:00,
2013-03-29 05:30:00,41.2,30.3,30.20,NW,312,1.0,1.0,65,0.00,,,0.00,Wunderground v.1.15,2013-03-29 09:30:00,
2013-03-29 05:35:00,41.2,30.3,30.20,NW,317,2.0,4.0,65,0.00,,,0.00,Wunderground v.1.15,2013-03-29 09:35:00,
2013-03-29 05:41:00,41.3,30.4,30.20,NW,315,2.0,4.0,65,0.00,,,0.00,Wunderground v.1.15,2013-03-29 09:41:00,
2013-03-29 05:47:00,41.3,30.4,30.20,NW,305,2.0,4.0,65,0.00,,,0.00,Wunderground v.1.15,2013-03-29 09:47:00,
2013-03-29 05:53:00,41.4,30.1,30.20,NW,317,2.0,4.0,64,0.00,,,0.00,Wunderground v.1.15,2013-03-29 09:53:00,
2013-03-29 05:58:00,41.4,30.1,30.20,NW,305,2.0,4.0,64,0.00,,,0.00,Wunderground v.1.15,2013-03-29 09:58:00,
2013-03-29 06:04:00,41.3,30.0,30.20,NNW,328,2.0,4.0,64,0.00,,,0.00,Wunderground v.1.15,2013-03-29 10:04:00,
2013-03-29 06:10:00,41.3,29.6,30.21,NW,309,2.0,2.0,63,0.00,,,0.00,Wunderground v.1.15,2013-03-29 10:10:00,
2013-03-29 06:15:00,41.3,29.6,30.21,WNW,282,2.0,5.0,63,0.00,,,0.00,Wunderground v.1.15,2013-03-29 10:15:00,
2013-03-29 06:21:00,41.3,29.6,30.21,NW,310,1.0,4.0,63,0.00,,,0.00,Wunderground v.1.15,2013-03-29 10:21:00,
2013-03-29 06:26:00,41.3,29.6,30.21,NW,310,1.0,4.0,63,0.00,,,0.00,Wunderground v.1.15,2013-03-29 10:26:00,
2013-03-29 06:32:00,41.3,29.6,30.21,NW,311,1.0,4.0,63,0.00,,,0.00,Wunderground v.1.15,2013-03-29 10:32:00,
2013-03-29 06:37:00,41.2,29.5,30.21,NNW,333,1.0,4.0,63,0.00,,,0.00,Wunderground v.1.15,2013-03-29 10:37:00,
2013-03-29 06:42:00,41.2,29.5,30.21,NNW,333,1.0,4.0,63,0.00,,,0.00,Wunderground v.1.15,2013-03-29 10:42:00,
2013-03-29 06:47:00,41.1,29.8,30.21,NNW,333,0.0,4.0,64,0.00,,,0.00,Wunderground v.1.15,2013-03-29 10:47:00,
2013-03-29 06:53:00,41.1,29.8,30.21,NNW,348,1.0,5.0,64,0.00,,,0.00,Wunderground v.1.15,2013-03-29 10:53:00,
2013-03-29 06:59:00,41.2,29.5,30.21,NW,315,1.0,5.0,63,0.00,,,0.00,Wunderground v.1.15,2013-03-29 10:59:00,
2013-03-29 07:04:00,41.2,29.5,30.21,NW,315,1.0,1.0,63,0.00,,,0.00,Wunderground v.1.15,2013-03-29 11:04:00,
2013-03-29 07:10:00,41.3,29.6,30.22,NW,319,1.0,4.0,63,0.00,,,0.00,Wunderground v.1.15,2013-03-29 11:10:00,
2013-03-29 07:15:00,41.5,29.4,30.22,NW,320,2.0,4.0,62,0.00,,,0.00,Wunderground v.1.15,2013-03-29 11:15:00,
2013-03-29 07:21:00,41.8,29.3,30.22,WNW,303,1.0,2.0,61,0.00,,,0.00,Wunderground v.1.15,2013-03-29 11:21:00,
2013-03-29 07:26:00,42.0,29.1,30.22,NW,321,2.0,2.0,60,0.00,,,0.00,Wunderground v.1.15,2013-03-29 11:26:00,
2013-03-29 07:31:00,42.2,28.9,30.22,NW,322,2.0,4.0,59,0.00,,,0.00,Wunderground v.1.15,2013-03-29 11:31:00,
2013-03-29 07:37:00,42.4,29.5,30.22,NW,319,2.0,6.0,60,0.00,,,0.00,Wunderground v.1.15,2013-03-29 11:37:00,
2013-03-29 07:43:00,42.5,30.0,30.22,NW,319,1.0,4.0,61,0.00,,,0.00,Wunderground v.1.15,2013-03-29 11:43:00,
2013-03-29 07:48:00,42.5,30.0,30.22,NW,319,0.0,4.0,61,0.00,,,0.00,Wunderground v.1.15,2013-03-29 11:48:00,
2013-03-29 07:53:00,42.7,30.2,30.23,NW,308,1.0,2.0,61,0.00,,,0.00,Wunderground v.1.15,2013-03-29 11:53:00,
2013-03-29 07:59:00,42.9,30.4,30.23,WNW,286,1.0,4.0,61,0.00,,,0.00,Wunderground v.1.15,2013-03-29 11:59:00,
2013-03-29 08:04:00,43.4,30.8,30.23,NW,320,1.0,5.0,61,0.00,,,0.00,Wunderground v.1.15,2013-03-29 12:04:00,
2013-03-29 08:09:00,43.8,30.4,30.23,WNW,284,1.0,5.0,59,0.00,,,0.00,Wunderground v.1.15,2013-03-29 12:09:00,
2013-03-29 08:15:00,44.1,30.7,30.23,WNW,288,1.0,2.0,59,0.00,,,0.00,Wunderground v.1.15,2013-03-29 12:15:00,
2013-03-29 08:21:00,44.2,30.3,30.23,WSW,256,1.0,2.0,58,0.00,,,0.00,Wunderground v.1.15,2013-03-29 12:21:00,
2013-03-29 08:27:00,44.3,30.0,30.23,NW,309,1.0,4.0,57,0.00,,,0.00,Wunderground v.1.15,2013-03-29 12:27:00,
2013-03-29 08:33:00,44.4,29.7,30.23,NW,316,2.0,5.0,56,0.00,,,0.00,Wunderground v.1.15,2013-03-29 12:33:00,
2013-03-29 08:39:00,44.7,30.0,30.23,NW,324,2.0,5.0,56,0.00,,,0.00,Wunderground v.1.15,2013-03-29 12:39:00,
2013-03-29 08:45:00,44.9,29.7,30.23,NNW,329,2.0,6.0,55,0.00,,,0.00,Wunderground v.1.15,2013-03-29 12:45:00,
2013-03-29 08:51:00,45.3,30.1,30.23,WSW,255,3.0,3.0,55,0.00,,,0.00,Wunderground v.1.15,2013-03-29 12:51:00,
2013-03-29 08:57:00,45.7,30.4,30.24,West,274,3.0,5.0,55,0.00,,,0.00,Wunderground v.1.15,2013-03-29 12:57:00,
2013-03-29 09:02:00,45.9,30.2,30.24,NW,311,3.0,5.0,54,0.00,,,0.00,Wunderground v.1.15,2013-03-29 13:02:00,
2013-03-29 09:08:00,46.3,31.0,30.23,West,265,3.0,5.0,55,0.00,,,0.00,Wunderground v.1.15,2013-03-29 13:08:00,
2013-03-29 09:14:00,46.5,30.3,30.23,NNW,332,3.0,9.0,53,0.00,,,0.00,Wunderground v.1.15,2013-03-29 13:14:00,
2013-03-29 09:19:00,46.9,30.6,30.24,NNE,31,3.0,9.0,53,0.00,,,0.00,Wunderground v.1.15,2013-03-29 13:19:00,
2013-03-29 09:25:00,47.3,30.1,30.24,WNW,298,3.0,7.0,51,0.00,,,0.00,Wunderground v.1.15,2013-03-29 13:25:00,
2013-03-29 09:31:00,47.4,30.6,30.24,NNW,329,5.0,6.0,52,0.00,,,0.00,Wunderground v.1.15,2013-03-29 13:31:00,
2013-03-29 09:36:00,47.8,30.0,30.23,WNW,302,4.0,7.0,50,0.00,,,0.00,Wunderground v.1.15,2013-03-29 13:36:00,
2013-03-29 09:41:00,48.1,30.3,30.23,NNW,331,4.0,6.0,50,0.00,,,0.00,Wunderground v.1.15,2013-03-29 13:41:00,
2013-03-29 09:46:00,48.3,31.0,30.23,North,8,4.0,6.0,51,0.00,,,0.00,Wunderground v.1.15,2013-03-29 13:46:00,
2013-03-29 09:51:00,48.4,30.6,30.23,NW,307,4.0,8.0,50,0.00,,,0.00,Wunderground v.1.15,2013-03-29 13:51:00,
2013-03-29 09:57:00,48.6,30.8,30.23,NNW,335,5.0,8.0,50,0.00,,,0.00,Wunderground v.1.15,2013-03-29 13:57:00,
2013-03-29 10:03:00,49.0,31.2,30.23,NNW,346,4.0,7.0,50,0.00,,,0.00,Wunderground v.1.15,2013-03-29 14:03:00,
2013-03-29 10:08:00,49.1,30.2,30.23,North,11,5.0,8.0,48,0.00,,,0.00,Wunderground v.1.15,2013-03-29 14:08:00,
2013-03-29 10:14:00,48.8,30.5,30.23,NW,310,6.0,7.0,49,0.00,,,0.00,Wunderground v.1.15,2013-03-29 14:14:00,
2013-03-29 10:20:00,49.7,31.3,30.23,North,1,4.0,4.0,49,0.00,,,0.00,Wunderground v.1.15,2013-03-29 14:20:00,
2013-03-29 10:26:00,50.2,32.3,30.23,NNW,330,3.0,7.0,50,0.00,,,0.00,Wunderground v.1.15,2013-03-29 14:26:00,
2013-03-29 10:32:00,50.3,30.3,30.23,North,7,4.0,7.0,46,0.00,,,0.00,Wunderground v.1.15,2013-03-29 14:32:00,
2013-03-29 10:38:00,50.7,31.7,30.23,North,3,4.0,7.0,48,0.00,,,0.00,Wunderground v.1.15,2013-03-29 14:38:00,
2013-03-29 10:44:00,51.0,32.0,30.23,NNE,13,4.0,7.0,48,0.00,,,0.00,Wunderground v.1.15,2013-03-29 14:44:00,
2013-03-29 10:50:00,51.0,30.9,30.22,North,355,4.0,7.0,46,0.00,,,0.00,Wunderground v.1.15,2013-03-29 14:50:00,
2013-03-29 10:56:00,51.0,30.9,30.22,NW,317,4.0,9.0,46,0.00,,,0.00,Wunderground v.1.15,2013-03-29 14:56:00,
2013-03-29 11:01:00,51.0,30.4,30.22,North,8,5.0,9.0,45,0.00,,,0.00,Wunderground v.1.15,2013-03-29 15:01:00,
2013-03-29 11:07:00,51.1,31.0,30.22,NNW,331,5.0,9.0,46,0.00,,,0.00,Wunderground v.1.15,2013-03-29 15:07:00,
2013-03-29 11:12:00,51.2,31.1,30.22,NNW,342,5.0,9.0,46,0.00,,,0.00,Wunderground v.1.15,2013-03-29 15:12:00,
2013-03-29 11:18:00,51.8,31.7,30.22,NW,326,5.0,9.0,46,0.00,,,0.00,Wunderground v.1.15,2013-03-29 15:18:00,
2013-03-29 11:24:00,52.4,32.2,30.22,NW,318,4.0,9.0,46,0.00,,,0.00,Wunderground v.1.15,2013-03-29 15:24:00,
2013-03-29 11:30:00,52.6,31.3,30.21,WNW,303,4.0,4.0,44,0.00,,,0.00,Wunderground v.1.15,2013-03-29 15:30:00,
2013-03-29 11:37:00,53.2,31.8,30.21,North,352,4.0,9.0,44,0.00,,,0.00,Wunderground v.1.15,2013-03-29 15:37:00,
2013-03-29 11:42:00,53.1,32.3,30.21,NNW,346,4.0,9.0,45,0.00,,,0.00,Wunderground v.1.15,2013-03-29 15:42:00,
2013-03-29 11:47:00,53.2,32.9,30.21,West,280,5.0,9.0,46,0.00,,,0.00,Wunderground v.1.15,2013-03-29 15:47:00,
2013-03-29 11:53:00,53.5,33.2,30.21,NW,313,4.0,9.0,46,0.00,,,0.00,Wunderground v.1.15,2013-03-29 15:53:00,
2013-03-29 11:58:00,53.4,33.1,30.21,NNE,30,4.0,9.0,46,0.00,,,0.00,Wunderground v.1.15,2013-03-29 15:58:00,
2013-03-29 12:04:00,53.0,31.6,30.20,NNW,329,5.0,9.0,44,0.00,,,0.00,Wunderground v.1.15,2013-03-29 16:04:00,
2013-03-29 12:10:00,52.8,33.1,30.20,North,357,5.0,9.0,47,0.00,,,0.00,Wunderground v.1.15,2013-03-29 16:10:00,
2013-03-29 12:16:00,52.6,31.3,30.20,WNW,290,5.0,9.0,44,0.00,,,0.00,Wunderground v.1.15,2013-03-29 16:16:00,
2013-03-29 12:22:00,53.3,31.9,30.20,North,356,5.0,9.0,44,0.00,,,0.00,Wunderground v.1.15,2013-03-29 16:22:00,
2013-03-29 12:27:00,53.3,31.9,30.19,WNW,302,4.0,9.0,44,0.00,,,0.00,Wunderground v.1.15,2013-03-29 16:27:00,
2013-03-29 12:33:00,53.6,31.6,30.19,NNW,330,3.0,9.0,43,0.00,,,0.00,Wunderground v.1.15,2013-03-29 16:33:00,
2013-03-29 12:39:00,54.1,32.1,30.19,NW,317,3.0,9.0,43,0.00,,,0.00,Wunderground v.1.15,2013-03-29 16:39:00,
2013-03-29 12:45:00,54.1,31.5,30.18,NNW,344,3.0,9.0,42,0.00,,,0.00,Wunderground v.1.15,2013-03-29 16:45:00,
2013-03-29 12:50:00,53.5,31.5,30.18,NNW,340,4.0,9.0,43,0.00,,,0.00,Wunderground v.1.15,2013-03-29 16:50:00,
2013-03-29 12:56:00,52.8,31.5,30.18,West,279,4.0,9.0,44,0.00,,,0.00,Wunderground v.1.15,2013-03-29 16:56:00,
2013-03-29 13:01:00,52.7,32.5,30.18,WNW,302,4.0,9.0,46,0.00,,,0.00,Wunderground v.1.15,2013-03-29 17:01:00,
2013-03-29 13:06:00,52.7,33.0,30.18,NNW,337,3.0,9.0,47,0.00,,,0.00,Wunderground v.1.15,2013-03-29 17:06:00,
2013-03-29 13:12:00,53.1,32.8,30.17,West,279,3.0,5.0,46,0.00,,,0.00,Wunderground v.1.15,2013-03-29 17:12:00,
2013-03-29 13:18:00,53.2,30.7,30.17,NW,318,5.0,10.0,42,0.00,,,0.00,Wunderground v.1.15,2013-03-29 17:18:00,
2013-03-29 13:24:00,53.1,30.6,30.17,NW,325,7.0,9.0,42,0.00,,,0.00,Wunderground v.1.15,2013-03-29 17:24:00,
2013-03-29 13:30:00,53.0,32.2,30.17,NNW,340,5.0,7.0,45,0.00,,,0.00,Wunderground v.1.15,2013-03-29 17:30:00,
2013-03-29 13:35:00,53.0,32.2,30.17,NNW,334,4.0,7.0,45,0.00,,,0.00,Wunderground v.1.15,2013-03-29 17:35:00,
2013-03-29 13:41:00,52.9,31.0,30.17,NNW,328,5.0,12.0,43,0.00,,,0.00,Wunderground v.1.15,2013-03-29 17:41:00,
2013-03-29 13:46:00,52.9,30.4,30.16,NW,321,7.0,12.0,42,0.00,,,0.00,Wunderground v.1.15,2013-03-29 17:46:00,
2013-03-29 13:51:00,53.0,30.5,30.16,NW,326,6.0,7.0,42,0.00,,,0.00,Wunderground v.1.15,2013-03-29 17:51:00,
2013-03-29 13:57:00,53.0,30.5,30.16,North,358,6.0,9.0,42,0.00,,,0.00,Wunderground v.1.15,2013-03-29 17:57:00,
2013-03-29 14:02:00,52.9,31.0,30.16,NNW,343,6.0,7.0,43,0.00,,,0.00,Wunderground v.1.15,2013-03-29 18:02:00,
2013-03-29 14:07:00,52.8,29.7,30.16,WNW,293,6.0,9.0,41,0.00,,,0.00,Wunderground v.1.15,2013-03-29 18:07:00,
2013-03-29 14:13:00,52.8,31.5,30.16,NNW,334,4.0,6.0,44,0.00,,,0.00,Wunderground v.1.15,2013-03-29 18:13:00,
2013-03-29 14:19:00,52.8,30.3,30.16,WNW,296,4.0,7.0,42,0.00,,,0.00,Wunderground v.1.15,2013-03-29 18:19:00,
2013-03-29 14:24:00,52.8,30.9,30.15,NNW,328,5.0,8.0,43,0.00,,,0.00,Wunderground v.1.15,2013-03-29 18:24:00,
2013-03-29 14:30:00,52.8,31.5,30.15,WNW,293,4.0,4.0,44,0.00,,,0.00,Wunderground v.1.15,2013-03-29 18:30:00,
2013-03-29 14:35:00,52.7,31.4,30.15,NW,324,3.0,6.0,44,0.00,,,0.00,Wunderground v.1.15,2013-03-29 18:35:00,
2013-03-29 14:41:00,53.1,32.3,30.15,NNW,329,4.0,6.0,45,0.00,,,0.00,Wunderground v.1.15,2013-03-29 18:41:00,
2013-03-29 14:47:00,54.2,32.2,30.15,North,355,4.0,7.0,43,0.00,,,0.00,Wunderground v.1.15,2013-03-29 18:47:00,
2013-03-29 14:53:00,54.1,30.9,30.15,NNW,332,3.0,6.0,41,0.00,,,0.00,Wunderground v.1.15,2013-03-29 18:53:00,
2013-03-29 14:58:00,54.0,30.8,30.14,NW,326,4.0,6.0,41,0.00,,,0.00,Wunderground v.1.15,2013-03-29 18:58:00,
2013-03-29 15:03:00,53.9,30.1,30.14,WNW,293,3.0,5.0,40,0.00,,,0.00,Wunderground v.1.15,2013-03-29 19:03:00,
2013-03-29 15:09:00,53.8,30.6,30.14,NNW,348,4.0,5.0,41,0.00,,,0.00,Wunderground v.1.15,2013-03-29 19:09:00,
2013-03-29 15:15:00,53.7,31.7,30.14,NW,326,4.0,6.0,43,0.00,,,0.00,Wunderground v.1.15,2013-03-29 19:15:00,
2013-03-29 15:21:00,53.7,31.7,30.14,NNW,335,4.0,5.0,43,0.00,,,0.00,Wunderground v.1.15,2013-03-29 19:21:00,
2013-03-29 15:26:00,53.7,31.1,30.14,NW,312,3.0,5.0,42,0.00,,,0.00,Wunderground v.1.15,2013-03-29 19:26:00,
2013-03-29 15:32:00,53.8,30.6,30.14,WNW,302,4.0,6.0,41,0.00,,,0.00,Wunderground v.1.15,2013-03-29 19:32:00,
2013-03-29 15:38:00,53.9,31.3,30.14,North,1,4.0,6.0,42,0.00,,,0.00,Wunderground v.1.15,2013-03-29 19:38:00,
2013-03-29 15:44:00,53.8,30.6,30.14,WNW,290,4.0,8.0,41,0.00,,,0.00,Wunderground v.1.15,2013-03-29 19:44:00,
2013-03-29 15:50:00,53.8,30.0,30.14,NW,316,4.0,5.0,40,0.00,,,0.00,Wunderground v.1.15,2013-03-29 19:50:00,
2013-03-29 15:56:00,53.7,29.9,30.13,NW,310,5.0,8.0,40,0.00,,,0.00,Wunderground v.1.15,2013-03-29 19:56:00,
2013-03-29 16:01:00,53.8,29.4,30.13,NW,310,5.0,11.0,39,0.00,,,0.00,Wunderground v.1.15,2013-03-29 20:01:00,
2013-03-29 16:07:00,53.9,29.5,30.13,WNW,303,5.0,11.0,39,0.00,,,0.00,Wunderground v.1.15,2013-03-29 20:07:00,
2013-03-29 16:13:00,54.0,31.4,30.13,NW,305,4.0,11.0,42,0.00,,,0.00,Wunderground v.1.15,2013-03-29 20:13:00,
2013-03-29 16:19:00,54.0,31.4,30.13,West,274,3.0,11.0,42,0.00,,,0.00,Wunderground v.1.15,2013-03-29 20:19:00,
2013-03-29 16:25:00,54.1,30.9,30.13,NNW,336,2.0,11.0,41,0.00,,,0.00,Wunderground v.1.15,2013-03-29 20:25:00,
2013-03-29 16:31:00,54.1,30.3,30.13,North,9,2.0,11.0,40,0.00,,,0.00,Wunderground v.1.15,2013-03-29 20:31:00,
2013-03-29 16:37:00,54.1,31.5,30.13,NNW,329,3.0,11.0,42,0.00,,,0.00,Wunderground v.1.15,2013-03-29 20:37:00,
2013-03-29 16:42:00,54.0,32.0,30.13,NW,323,3.0,11.0,43,0.00,,,0.00,Wunderground v.1.15,2013-03-29 20:42:00,
2013-03-29 16:48:00,54.1,31.5,30.13,WNW,292,3.0,11.0,42,0.00,,,0.00,Wunderground v.1.15,2013-03-29 20:48:00,
2013-03-29 16:54:00,54.4,31.2,30.12,West,266,3.0,11.0,41,0.00,,,0.00,Wunderground v.1.15,2013-03-29 20:54:00,
2013-03-29 16:59:00,54.6,30.7,30.12,NW,326,3.0,11.0,40,0.00,,,0.00,Wunderground v.1.15,2013-03-29 20:59:00,
2013-03-29 17:05:00,55.1,31.8,30.12,NNW,334,4.0,11.0,41,0.00,,,0.00,Wunderground v.1.15,2013-03-29 21:05:00,
2013-03-29 17:11:00,55.3,30.7,30.12,NW,319,3.0,6.0,39,0.00,,,0.00,Wunderground v.1.15,2013-03-29 21:11:00,
2013-03-29 17:17:00,55.0,31.1,30.12,NW,313,3.0,6.0,40,0.00,,,0.00,Wunderground v.1.15,2013-03-29 21:17:00,
2013-03-29 17:22:00,54.7,30.8,30.13,NW,309,4.0,6.0,40,0.00,,,0.00,Wunderground v.1.15,2013-03-29 21:22:00,
2013-03-29 17:27:00,54.3,31.7,30.13,NNW,329,4.0,6.0,42,0.00,,,0.00,Wunderground v.1.15,2013-03-29 21:27:00,
2013-03-29 17:32:00,54.0,31.4,30.13,NNE,16,4.0,9.0,42,0.00,,,0.00,Wunderground v.1.15,2013-03-29 21:32:00,
2013-03-29 17:38:00,54.1,32.1,30.13,North,351,4.0,9.0,43,0.00,,,0.00,Wunderground v.1.15,2013-03-29 21:38:00,
2013-03-29 17:44:00,54.4,31.8,30.13,NNW,338,5.0,7.0,42,0.00,,,0.00,Wunderground v.1.15,2013-03-29 21:44:00,
2013-03-29 17:50:00,54.7,32.0,30.12,North,354,4.0,4.0,42,0.00,,,0.00,Wunderground v.1.15,2013-03-29 21:50:00,
2013-03-29 17:56:00,54.6,31.3,30.12,NW,312,4.0,6.0,41,0.00,,,0.00,Wunderground v.1.15,2013-03-29 21:56:00,
2013-03-29 18:01:00,54.2,31.0,30.13,NNW,334,4.0,5.0,41,0.00,,,0.00,Wunderground v.1.15,2013-03-29 22:01:00,
2013-03-29 18:07:00,54.0,31.4,30.13,North,358,5.0,12.0,42,0.00,,,0.00,Wunderground v.1.15,2013-03-29 22:07:00,
2013-03-29 18:13:00,53.9,31.9,30.13,NW,319,5.0,7.0,43,0.00,,,0.00,Wunderground v.1.15,2013-03-29 22:13:00,
2013-03-29 18:18:00,54.0,31.4,30.13,NW,318,4.0,7.0,42,0.00,,,0.00,Wunderground v.1.15,2013-03-29 22:18:00,
2013-03-29 18:23:00,54.1,32.1,30.13,NNW,330,2.0,5.0,43,0.00,,,0.00,Wunderground v.1.15,2013-03-29 22:23:00,
2013-03-29 18:29:00,54.1,31.5,30.13,NNW,342,2.0,5.0,42,0.00,,,0.00,Wunderground v.1.15,2013-03-29 22:29:00,
2013-03-29 18:34:00,53.9,31.3,30.13,NW,317,3.0,5.0,42,0.00,,,0.00,Wunderground v.1.15,2013-03-29 22:34:00,
2013-03-29 18:40:00,53.6,31.0,30.13,NW,305,3.0,3.0,42,0.00,,,0.00,Wunderground v.1.15,2013-03-29 22:40:00,
2013-03-29 18:46:00,53.4,31.4,30.13,NW,324,2.0,5.0,43,0.00,,,0.00,Wunderground v.1.15,2013-03-29 22:46:00,
2013-03-29 18:51:00,53.3,31.4,30.13,NNW,332,2.0,5.0,43,0.00,,,0.00,Wunderground v.1.15,2013-03-29 22:51:00,
2013-03-29 18:57:00,53.2,31.3,30.13,NNW,332,1.0,5.0,43,0.00,,,0.00,Wunderground v.1.15,2013-03-29 22:57:00,
2013-03-29 19:02:00,53.1,31.7,30.14,NNW,332,1.0,5.0,44,0.00,,,0.00,Wunderground v.1.15,2013-03-29 23:02:00,
2013-03-29 19:08:00,53.0,32.2,30.14,NNW,332,1.0,5.0,45,0.00,,,0.00,Wunderground v.1.15,2013-03-29 23:08:00,
2013-03-29 19:13:00,52.9,32.1,30.14,NNW,332,0.0,2.0,45,0.00,,,0.00,Wunderground v.1.15,2013-03-29 23:13:00,
2013-03-29 19:18:00,52.8,33.1,30.14,NNW,332,0.0,2.0,47,0.00,,,0.00,Wunderground v.1.15,2013-03-29 23:18:00,
2013-03-29 19:23:00,52.6,34.0,30.14,NNW,332,0.0,2.0,49,0.00,,,0.00,Wunderground v.1.15,2013-03-29 23:23:00,
2013-03-29 19:28:00,52.4,33.8,30.14,NNW,332,0.0,2.0,49,0.00,,,0.00,Wunderground v.1.15,2013-03-29 23:28:00,
2013-03-29 19:34:00,52.1,34.0,30.14,NNW,332,0.0,2.0,50,0.00,,,0.00,Wunderground v.1.15,2013-03-29 23:34:00,
2013-03-29 19:40:00,51.5,34.0,30.14,NNW,332,0.0,2.0,51,0.00,,,0.00,Wunderground v.1.15,2013-03-29 23:40:00,
2013-03-29 19:46:00,51.1,34.1,30.14,NNW,332,0.0,2.0,52,0.00,,,0.00,Wunderground v.1.15,2013-03-29 23:46:00,
2013-03-29 19:51:00,50.7,33.7,30.14,NNW,332,0.0,2.0,52,0.00,,,0.00,Wunderground v.1.15,2013-03-29 23:51:00,
2013-03-29 19:57:00,50.4,33.4,30.14,NNW,332,0.0,2.0,52,0.00,,,0.00,Wunderground v.1.15,2013-03-29 23:57:00,
2013-03-29 20:02:00,50.2,33.7,30.15,NNW,332,0.0,2.0,53,0.00,,,0.00,Wunderground v.1.15,2013-03-30 00:02:00,
2013-03-29 20:07:00,50.0,34.0,30.15,NNW,332,0.0,2.0,54,0.00,,,0.00,Wunderground v.1.15,2013-03-30 00:07:00,
2013-03-29 20:12:00,49.7,33.7,30.15,NNW,332,0.0,0.0,54,0.00,,,0.00,Wunderground v.1.15,2013-03-30 00:12:00,
2013-03-29 20:17:00,49.5,33.1,30.15,NNW,332,0.0,0.0,53,0.00,,,0.00,Wunderground v.1.15,2013-03-30 00:17:00,
2013-03-29 20:23:00,49.2,33.3,30.15,NNW,332,0.0,0.0,54,0.00,,,0.00,Wunderground v.1.15,2013-03-30 00:23:00,
2013-03-29 20:29:00,48.8,33.8,30.15,NNW,332,0.0,0.0,56,0.00,,,0.00,Wunderground v.1.15,2013-03-30 00:29:00,
2013-03-29 20:35:00,48.4,33.4,30.16,NNW,332,0.0,1.0,56,0.00,,,0.00,Wunderground v.1.15,2013-03-30 00:35:00,
2013-03-29 20:41:00,48.1,33.1,30.16,NNW,332,0.0,0.0,56,0.00,,,0.00,Wunderground v.1.15,2013-03-30 00:41:00,
2013-03-29 20:47:00,47.8,31.5,30.16,NNW,332,0.0,1.0,53,0.00,,,0.00,Wunderground v.1.15,2013-03-30 00:47:00,
2013-03-29 20:52:00,47.7,30.9,30.16,NNW,332,0.0,0.0,52,0.00,,,0.00,Wunderground v.1.15,2013-03-30 00:52:00,
2013-03-29 20:58:00,47.8,30.5,30.16,NNW,332,0.0,2.0,51,0.00,,,0.00,Wunderground v.1.15,2013-03-30 00:58:00,
2013-03-29 21:03:00,47.9,31.6,30.16,NNW,332,1.0,2.0,53,0.00,,,0.00,Wunderground v.1.15,2013-03-30 01:03:00,
2013-03-29 21:08:00,47.9,31.1,30.16,NNW,332,1.0,2.0,52,0.00,,,0.00,Wunderground v.1.15,2013-03-30 01:08:00,
2013-03-29 21:14:00,47.9,30.6,30.16,NNW,332,0.0,1.0,51,0.00,,,0.00,Wunderground v.1.15,2013-03-30 01:14:00,
2013-03-29 21:20:00,47.8,31.0,30.17,NNW,332,0.0,1.0,52,0.00,,,0.00,Wunderground v.1.15,2013-03-30 01:20:00,
2013-03-29 21:25:00,47.7,30.9,30.17,NNW,332,0.0,1.0,52,0.00,,,0.00,Wunderground v.1.15,2013-03-30 01:25:00,
2013-03-29 21:31:00,47.5,30.3,30.17,NNW,332,0.0,1.0,51,0.00,,,0.00,Wunderground v.1.15,2013-03-30 01:31:00,
2013-03-29 21:38:00,47.4,30.2,30.17,NNW,332,0.0,1.0,51,0.00,,,0.00,Wunderground v.1.15,2013-03-30 01:38:00,
2013-03-29 21:43:00,47.3,30.5,30.17,NNW,332,0.0,1.0,52,0.00,,,0.00,Wunderground v.1.15,2013-03-30 01:43:00,
2013-03-29 21:49:00,47.1,30.4,30.17,NNW,332,0.0,1.0,52,0.00,,,0.00,Wunderground v.1.15,2013-03-30 01:49:00,
2013-03-29 21:55:00,46.9,30.6,30.17,NNW,332,0.0,1.0,53,0.00,,,0.00,Wunderground v.1.15,2013-03-30 01:55:00,
2013-03-29 22:00:00,46.6,30.4,30.17,NNW,332,0.0,1.0,53,0.00,,,0.00,Wunderground v.1.15,2013-03-30 02:00:00,
2013-03-29 22:05:00,46.4,30.6,30.18,NNW,332,0.0,1.0,54,0.00,,,0.00,Wunderground v.1.15,2013-03-30 02:05:00,
2013-03-29 22:10:00,46.0,31.2,30.18,NNW,332,0.0,1.0,56,0.00,,,0.00,Wunderground v.1.15,2013-03-30 02:10:00,
2013-03-29 22:15:00,45.8,33.5,30.18,NNW,332,0.0,1.0,62,0.00,,,0.00,Wunderground v.1.15,2013-03-30 02:15:00,
2013-03-29 22:20:00,45.5,34.8,30.18,NNW,332,0.0,1.0,66,0.00,,,0.00,Wunderground v.1.15,2013-03-30 02:20:00,
2013-03-29 22:26:00,45.1,35.9,30.18,NNW,332,0.0,1.0,70,0.00,,,0.00,Wunderground v.1.15,2013-03-30 02:26:00,
2013-03-29 22:31:00,44.8,36.0,30.18,NNW,332,0.0,1.0,71,0.00,,,0.00,Wunderground v.1.15,2013-03-30 02:31:00,
2013-03-29 22:37:00,44.5,36.0,30.18,NNW,332,0.0,1.0,72,0.00,,,0.00,Wunderground v.1.15,2013-03-30 02:37:00,
2013-03-29 22:43:00,44.3,35.8,30.18,NNW,332,0.0,1.0,72,0.00,,,0.00,Wunderground v.1.15,2013-03-30 02:43:00,
2013-03-29 22:48:00,44.0,35.2,30.18,NNW,332,1.0,1.0,71,0.00,,,0.00,Wunderground v.1.15,2013-03-30 02:48:00,
2013-03-29 22:54:00,43.8,34.6,30.18,NNW,332,1.0,1.0,70,0.00,,,0.00,Wunderground v.1.15,2013-03-30 02:54:00,
2013-03-29 22:59:00,43.6,34.1,30.18,NNW,332,1.0,1.0,69,0.00,,,0.00,Wunderground v.1.15,2013-03-30 02:59:00,
2013-03-29 23:05:00,43.5,34.7,30.18,NNW,332,0.0,1.0,71,0.00,,,0.00,Wunderground v.1.15,2013-03-30 03:05:00,
2013-03-29 23:11:00,43.4,35.3,30.18,NNW,332,0.0,1.0,73,0.00,,,0.00,Wunderground v.1.15,2013-03-30 03:11:00,
2013-03-29 23:17:00,43.3,35.2,30.18,NNW,332,0.0,1.0,73,0.00,,,0.00,Wunderground v.1.15,2013-03-30 03:17:00,
2013-03-29 23:23:00,42.9,34.5,30.18,NNW,332,0.0,1.0,72,0.00,,,0.00,Wunderground v.1.15,2013-03-30 03:23:00,
2013-03-29 23:28:00,42.6,33.1,30.18,NNW,332,0.0,1.0,69,0.00,,,0.00,Wunderground v.1.15,2013-03-30 03:28:00,
2013-03-29 23:34:00,42.5,31.9,30.18,NNW,332,0.0,1.0,66,0.00,,,0.00,Wunderground v.1.15,2013-03-30 03:34:00,
2013-03-29 23:40:00,42.5,31.6,30.18,NNW,332,0.0,1.0,65,0.00,,,0.00,Wunderground v.1.15,2013-03-30 03:40:00,
2013-03-29 23:46:00,42.4,31.8,30.18,NNW,332,0.0,2.0,66,0.00,,,0.00,Wunderground v.1.15,2013-03-30 03:46:00,
2013-03-29 23:52:00,42.3,32.8,30.18,NNW,332,0.0,1.0,69,0.00,,,0.00,Wunderground v.1.15,2013-03-30 03:52:00,
2013-03-29 23:58:00,42.2,33.1,30.18,NNW,332,0.0,1.0,70,0.00,,,0.00,Wunderground v.1.15,2013-03-30 03:58:00,